Overview Statistics Trail Chart Weather Telemetry Raw packets
 

This is the latest recevied weather packets stored in our database for station/object WX4SGA. If no packets are shown the sender has not sent any weather packets the latest 10 day(s).

<< 57 58 59 60 61 62 63 >>
Time Temp. Humidity Pressure Rain* Wind** Luminosity Snow
1788224140 27.22° C 92% 1018 hPa 0 mm - 0 W/m² -
1788223835 27.22° C 92% 1018 hPa 0 mm - 0 W/m² -
1788223535 27.22° C 93% 1018 hPa 0 mm - 0 W/m² -
1788223230 27.22° C 92% 1018 hPa 0 mm - 0 W/m² -
1788222925 27.22° C 91% 1018 hPa 0 mm - 0 W/m² -
1788222623 27.78° C 91% 1018 hPa 0 mm - 0 W/m² -
1788222318 27.22° C 91% 1018 hPa 0 mm - 0 W/m² -
1788222013 27.22° C 92% 1017.6 hPa 0 mm - 0 W/m² -
1788221708 27.22° C 92% 1018 hPa 0 mm - 0 W/m² -
1788221403 27.78° C 92% 1017.6 hPa 0 mm - 0 W/m² -
1788221103 27.78° C 91% 1017.6 hPa 0 mm - 1 W/m² -
1788220802 27.78° C 91% 1017.6 hPa 0 mm - 2 W/m² -
1788220498 28.33° C 89% 1017.6 hPa 0 mm - 4 W/m² -
1788220193 28.33° C 89% 1018 hPa 0 mm - 8 W/m² -
1788219893 28.89° C 87% 1017.6 hPa 0 mm - 12 W/m² -
1788219588 28.89° C 87% 1017.6 hPa 0 mm - 17 W/m² -
1788219283 28.89° C 85% 1018 hPa 0 mm - 20 W/m² -
1788218979 29.44° C 84% 1017.6 hPa 0 mm - 20 W/m² -
1788218675 28.89° C 85% 1017.6 hPa 0 mm - 21 W/m² -
1788218370 29.44° C 83% 1017.6 hPa 0 mm - 26 W/m² -
1788218067 29.44° C 82% 1017.6 hPa 0 mm - 32 W/m² -
1788217762 29.44° C 80% 1017.6 hPa 0 mm - 31 W/m² -
1788217457 30° C 81% 1017.3 hPa 0 mm - 35 W/m² -
1788217157 30° C 79% 1017.6 hPa 0 mm - 36 W/m² -
1788216853 30° C 79% 1017.6 hPa 0 mm - 45 W/m² -

* Rain latest hour (hover to see other rain measurements)
** Current wind speed in m/s (hover to see current wind gust speed)